SL-12 R/B(2), 28139

Orbit data source: Space-Track

SL-12 R/B(2), 28139 is space debris in GEO originally from a launch on Sun, 28 Dec 2003 UTC launched from the Tyuratam Missile And Space Complex (TTMTR). Debris objects in space refer to the collection of defunct objects orbiting the Earth. Examples of debris include non-operational satellites, rocket bodies, and fragments generated from explosions, collisions, or faulty payload assembly.

Not visible in the next 10 days
Identifier
28139, 2003-060D
Orbit
GEO
Country
Flag of CISCIS
Related business
Manufacturer
RKKE
Mission
Spacecraft
Bus & Motor
BLOK DM2, Unknown motor
Mass
2,560 kg wet, 2,560 kg dry
Launch date (UTC)
2003-12-28 (22 years ago)
Launch vehicle
Unknown
Launch site
Tyuratam Missile And Space Complex (TTMTR)
Object type
Payload
Rocket body
Debris
Shape & HBR
Cyl + 1 Nozzle, 3.1 m
Radar Cross Section
23.684 m², Large (>1 m²)

Expand to show TLE details & history
Last TLE update: 2 days ago

TLE from 2 days ago
0 SL-12 R/B(2)
1 28139U 03060D   25304.76802385 -.00000029  00000-0  00000-0 0  9997
2 28139  13.3684  15.4100 0019834 226.4054 144.0007  1.00220002 79749
Epoch: 2025-10-31T18:25Z
TLE epoch observation values (Epoch: 2025-10-31T18:25:57.260Z)
Latitude
2.427°
Longitude
68.84172°
Altitude
35,868.446 km
Speed
3.069 km/s
True Right ascension
01h 42m 33s
True Declination
2° 25' 28"
Sunlit
Object was in daylight at epoch
Visualization orbit readout
Latitude
Unknown
Longitude
Unknown
Altitude
Unknown
Speed
Unknown
Apparent Right ascension
Unknown
Apparent Declination
Unknown
Sunlit
N/A
Visualization observer readout
Local Sidereal Time
08:55:26
Azimuth
Unknown
Elevation
Unknown
Doppler factor
Unknown
Orbital elements
Apogee altitude
35,885.764 km
Perigee altitude
35,718.444 km
Semi-major axis
42,180.241 km
Eccentricity
0.00198
Inclination
13.3684°
RAAN
15.41°
Arg. of periapsis
226.4054°
True anomaly
144.13402°
Mean anomaly
144.0007°
Eccentric anomaly
144.06739°
Mean motion
0.25054 °/min
Orbital period
1,436.89 mins
BSTAR
0
Loading maneuver chart data...
Computing Atmospheric mass density...
Loading historical data...
Loading historical data...
Loading historical data...
Loading historical data...
Loading historical data...
Loading historical data...
Loading historical data...

Documentation

Showing up to 5 results
|